Location: LC-39B
(28.6273°N, 80.6211°W)
Time: 04:25:44
(UTC+00:00)

ISS - Visible Passes

Search period start: 29 March 2015 00:00
Search period end: 08 April 2015 00:00
Orbit: 396 x 406 km, 51.6° (Epoch: 28 March)

Date Brightness Start Highest point End Pass type
(mag) Time Alt. Az. Time Alt. Az. Time Alt. Az.
29 Mar -0.8 10:29:39 10° N 10:32:08 21° NE 10:34:41 10° E visible
30 Mar -0.1 09:37:39 10° NNE 09:38:31 11° NE 09:39:30 10° NE visible
31 Mar -2.7 10:18:38 10° NW 10:21:48 56° NE 10:24:57 10° SE visible
01 Apr -1.1 09:27:08 20° N 09:28:16 24° NE 09:30:59 10° E visible
02 Apr -1.7 00:24:10 10° SSE 00:26:16 16° SE 00:26:42 16° ESE visible
02 Apr -3.0 10:09:49 26° WNW 10:11:11 43° SW 10:14:14 10° SSE visible
03 Apr -3.0 01:05:44 10° SW 01:08:58 63° NW 01:09:51 42° NNE visible
03 Apr -0.8 09:20:07 16° SE 09:20:07 16° SE 09:20:55 10° SE visible
04 Apr -3.1 00:12:20 10° SSW 00:15:28 48° SE 00:18:38 10° NE visible
04 Apr -0.1 01:50:42 10° WNW 01:52:06 12° NW 01:52:41 11° NNW visible
05 Apr -0.9 00:55:38 10° W 00:58:20 23° NW 01:00:59 10° NNE visible
07 Apr 0.0 00:46:59 10° NW 00:47:46 10° NW 00:48:24 10° NNW visible
